BERICHT 22/12/2019: De oude website is tijdelijk weer online! In 2020 zal er een volledig nieuwe site uitgerold worden, die nu volop in ontwikkeling is! Ondertussen blijven onderstaande metingen wel actueel!

Weerstation Zoersel Live Webcam Weerstation Zoersel Live Webcam


sateliet wolkenradar  


Doneren

CBI


onweer radar meer informatie blitzortung!


regen radar  rain snow radar


Enkele sfeerfotootjes...  

We konden geen weer-waarchuwingen ophalen. Ga rechtstreeks naar de Meteoalarm site : www.meteoalarm.eu en controleer daar .

metar rapporten vliegvelden

   
EBAW - Antwerp
gewijzigd: 17-06-2024 22:20
helder  
helder  
   wind: noorden 3,7 km/h
wind: noorden 3,7 km/h
temperatuur: 17°C
dauwpunt: 11°C
vochtigheid: 68%
barometer: 1014 hPa
zicht: meer dan 10 km
bewolking: helder
EBAW 172020Z 35002KT CAVOK 17/11 Q1014 NOSIG
EBLG - Li├Ęge
gewijzigd: 17-06-2024 22:50
helder  
helder  
   wind: kalm
wind: kalm
temperatuur: 17°C
dauwpunt: 11°C
vochtigheid: 68%
barometer: 1014 hPa
zicht: meer dan 10 km
bewolking: helder
EBLG 172050Z 00000KT CAVOK 17/11 Q1014 NOSIG
EBCV - Mons/Bergen
gewijzigd: 17-06-2024 22:25
grotendeels bewolkt  
grotendeels bewolkt  
   wind: varieert 3,7 km/h
wind: varieert 3,7 km/h
temperatuur: 17°C
dauwpunt: 14°C
vochtigheid: 83%
barometer: 1013 hPa
bewolking: grotendeels bewolkt
zicht: meer dan 10 km
bewolking: licht bewolkt 6500 ft,
grotendeels bewolkt 8500 ft,
grotendeels bewolkt 10000 ft
EBCV 172025Z AUTO VRB02KT 9999 FEW065/// BKN085/// BKN100/// 17/14 Q1013 BLU
EHBK - Maastricht
gewijzigd: 17-06-2024 22:55
gedeeltelijk bewolkt  
gedeeltelijk bewolkt  
   wind: oosten 1,9 km/h
wind: oosten 1,9 km/h
temperatuur: 16°C
dauwpunt: 13°C
vochtigheid: 83%
barometer: 1014 hPa
bewolking: gedeeltelijk bewolkt
zicht: meer dan 10 km
bewolking: gedeeltelijk bewolkt
EHBK 172055Z AUTO 10001KT 9999 NSC 16/13 Q1014
ELLX - Luxemburg
gewijzigd: 17-06-2024 22:50
licht bewolkt  
licht bewolkt  
   wind: zzo 7,4 km/h
wind: zzo 7,4 km/h
temperatuur: 15°C
dauwpunt: 15°C
vochtigheid: 100%
barometer: 1015 hPa
bewolking: licht bewolkt
zicht: meer dan 10 km
bewolking: licht bewolkt 2800 ft
ELLX 172050Z 16004KT 130V190 9999 FEW028 15/15 Q1015 NOSIG
EBOS - Oostende
gewijzigd: 17-06-2024 22:50
helder  
helder  
   wind: zzo 5,6 km/h
wind: zzo 5,6 km/h
temperatuur: 15°C
dauwpunt: 12°C
vochtigheid: 82%
barometer: 1014 hPa
zicht: meer dan 10 km
bewolking: helder
EBOS 172050Z 16003KT CAVOK 15/12 Q1014 NOSIG

script ontwikkeld door  Saratoga-weather.org aangepast voor de template door  Weerstation Leuven